Weather in Heide

Germany     54°11′43″N   9°05′20″E
temp.,
°C
wind,
m/s
gust,
m/s
humid.,
%
clouds,
%
prec.,
mm/h
press.,
hPa
HPBL,
m
6 march, sat
sat601:00−1nw23890 0.0 103261
04:00+1w369624 0.0 1031169
07:00+1wnw379730 0.1 1031175
10:00+5nw5881100 0.1 1031869
13:00+6wnw797060 0.1 10311031
16:00+4wnw7107067 0.0 10301095
19:00+3wnw5107284 0.1 1029863
22:00+2wnw6107899 0.0 1028796
7 march, sun
sun701:00+3wnw697599 0.1 1027899
04:00+2wnw5108190 0.0 1025680
07:00+2wnw6107895 0.0 1024893
10:00+4wnw6970100 0.0 10231049
13:00+5wnw6870100 0.1 1023930
16:00+4wnw5772100 0.0 1021752
19:00+2nw489199 0.1 1020478
22:00+3wnw4887100 0.1 1021435
8 march, mon
mon801:00+3nnw249299 0.1 1021262
04:00−1ne239437 0.0 102137
07:00−2e238226 0.0 102275
10:00+3ese356091 0.0 1022425
13:00+5sse345495 0.0 1022828
16:00+4sw3467100 0.0 1020437
19:00+2ssw3598100 0.6 1020253
22:00+3sw5797100 0.9 1019423
9 march, tue
tue901:00+3sw5897100 1.5 1017401
04:00+3sw6996100 0.6 1015532
07:00+4sw61095100 0.8 1015418
10:00+4sw6994100 0.4 1015425
13:00+5wsw5894100 0.4 1016380
16:00+5w61090100 0.1 1015518
19:00+5w5994100 0.3 1016397
22:00+5wsw5994100 0.0 1016350
10 march, wed
wed1001:00+5sw5991100 0.1 1016360
04:00+4sw5118999 0.0 1015400
07:00+4ssw6129199 0.0 1014440
10:00+4ssw71388100 0.1 1013538
13:00+5ssw81586100 0.4 1011745
16:00+6ssw101792100 2.7 1008838
19:00+6ssw111991100 6.5 1004889
22:00+7ssw122092100 2.4 1002898